EW6103 Weather Reports


time (UTC)temp
C
wind
direction
speed
KPH
gust
KPH
rain 1hr
cm
rain 24hr
cm
rain mn
cm
humidity
%
barometer
mb
20260507170012 17 180 6.4 16.1 0.00 0.00 0.00 57 1010.8
20260507165011 17 180 8.0 12.9 0.00 0.00 0.00 57 1010.7
20260507164009 17 270 9.7 17.7 0.00 0.00 0.00 55 1010.6
20260507163012 17 180 14.5 17.7 0.00 0.03 0.00 53 1010.5
20260507162008 18 270 6.4 12.9 0.00 0.03 0.00 55 1010.4
20260507161008 18 180 11.3 19.3 0.00 0.15 0.00 52 1010.4
20260507160014 18 270 11.3 17.7 0.00 0.15 0.00 52 1010.3
20260507155009 18 0 16.1 22.5 0.00 0.15 0.00 51 1010.3
20260507154010 19 270 12.9 17.7 0.00 0.18 0.00 54 1010.3
20260507153010 18 180 9.7 16.1 0.00 0.18 0.00 55 1010.5
20260507151008 17 180 11.3 19.3 0.00 0.18 0.00 56 1010.4
20260507145007 19 180 11.3 16.1 0.00 0.18 0.00 58 1010.3
20260507143009 18 270 14.5 19.3 0.00 0.18 0.00 57 1010.4
20260507142010 19 180 12.9 19.3 0.00 0.18 0.00 54 1010.3
20260507141007 18 180 14.5 22.5 0.00 0.18 0.00 57 1010.2
20260507140013 18 180 12.9 19.3 0.00 0.18 0.00 59 1010.2
20260507135009 20 270 9.7 14.5 0.00 0.25 0.00 57 1010.3
20260507134009 18 180 8.0 14.5 0.00 0.28 0.00 59 1010.4
20260507133011 17 180 14.5 20.9 0.00 0.28 0.00 57 1010.4
20260507132009 18 180 9.7 14.5 0.00 0.28 0.00 58 1010.4
20260507131009 18 270 11.3 16.1 0.00 0.28 0.00 57 1010.3
20260507130012 19 270 8.0 14.5 0.00 0.28 0.00 53 1010.2
20260507125011 20 270 11.3 17.7 0.00 0.28 0.00 54 1010.1
20260507124005 20 180 16.1 20.9 0.00 0.28 0.00 55 1010.1
20260507122006 20 180 9.7 17.7 0.00 0.28 0.00 62 1010.2
20260507120013 21 270 6.4 12.9 0.00 0.28 0.00 53 1009.9
20260507115006 19 270 9.7 17.7 0.00 0.28 0.00 61 1010.3
20260507114008 17 270 9.7 14.5 0.00 0.28 0.00 61 1010.2
20260507113010 18 270 9.7 19.3 0.00 0.28 0.00 59 1010.1
20260507112009 18 225 9.7 17.7 0.00 0.28 0.00 62 1010.1
20260507111009 19 225 11.3 17.7 0.00 0.28 0.00 63 1010.2
20260507110012 17 270 11.3 17.7 0.00 0.28 0.00 64 1010.1
20260507105008 17 180 8.0 17.7 0.00 0.28 0.00 67 1010.2
20260507104009 17 270 8.0 14.5 0.00 0.28 0.00 67 1010.2
20260507103011 17 270 9.7 19.3 0.00 0.28 0.00 68 1010.1
20260507101007 18 180 14.5 20.9 0.00 0.28 0.00 66 1009.9
20260507100014 17 270 8.0 12.9 0.00 0.28 0.00 67 1009.8
20260507095005 18 225 6.4 12.9 0.00 0.28 0.00 64 1009.8
20260507094006 18 180 8.0 16.1 0.00 0.28 0.00 68 1009.9
20260507093007 17 270 9.7 17.7 0.00 0.28 0.00 68 1009.8
20260507092010 16 225 12.9 17.7 0.00 0.28 0.00 73 1010.0
20260507090012 17 270 8.0 11.3 0.00 0.28 0.00 73 1009.7
20260507084006 17 270 6.4 11.3 0.00 0.28 0.00 73 1009.5
20260507082009 16 270 6.4 12.9 0.00 0.28 0.00 74 1009.7
20260507081008 15 270 8.0 16.1 0.00 0.28 0.00 76 1009.6
20260507075009 15 225 9.7 17.7 0.00 0.28 0.00 79 1009.7
20260507074011 15 270 8.0 12.9 0.00 0.28 0.00 79 1009.6
20260507072009 14 270 9.7 17.7 0.00 0.28 0.00 80 1009.5
20260507071007 15 270 8.0 14.5 0.00 0.28 0.00 80 1009.4
20260507070013 14 270 11.3 16.1 0.00 0.28 0.00 81 1009.3
20260507065009 14 270 9.7 14.5 0.00 0.28 0.00 82 1009.4
20260507064008 13 270 8.0 11.3 0.00 0.28 0.00 83 1009.4
20260507063010 13 225 8.0 14.5 0.00 0.28 0.00 83 1009.3
20260507062008 13 225 9.7 14.5 0.00 0.28 0.00 84 1009.2
20260507061006 13 270 9.7 14.5 0.00 0.28 0.00 84 1008.9
20260507060013 13 180 8.0 14.5 0.00 0.28 0.00 85 1008.9
20260507055009 13 270 6.4 14.5 0.00 0.28 0.00 87 1008.9
20260507053010 13 315 6.4 11.3 0.00 0.28 0.00 89 1008.6
20260507052009 13 270 8.0 11.3 0.00 0.28 0.00 88 1008.6
20260507051008 13 270 6.4 9.7 0.00 0.28 0.00 91 1008.4
20260507050011 12 225 6.4 8.0 0.00 0.28 0.00 93 1008.4
20260507045006 12 270 4.8 8.0 0.00 0.28 0.00 94 1008.2
20260507044009 12 180 0.0 3.2 0.00 0.28 0.00 95 1008.1
20260507043014 12 135 1.6 6.4 0.00 0.28 0.00 96 1008.1
20260507042008 12 135 1.6 4.8 0.00 0.28 0.00 96 1007.9
20260507041007 12 225 0.0 3.2 0.00 0.28 0.00 96 1007.7
20260507040013 11 180 3.2 4.8 0.00 0.28 0.00 96 1007.8
20260507035008 11 180 1.6 3.2 0.00 0.28 0.00 97 1007.6
20260507032009 11 135 1.6 3.2 0.00 0.28 0.00 96 1007.5
20260507031007 11 135 0.0 1.6 0.00 0.28 0.00 96 1007.4
20260507030012 11 270 1.6 3.2 0.00 0.28 0.00 96 1007.3
20260507025008 11 270 3.2 6.4 0.00 0.28 0.00 96 1007.4
20260507024006 11 0 4.8 6.4 0.00 0.28 0.00 96 1007.2
20260507023008 11 0 6.4 8.0 0.00 0.28 0.00 96 1007.2
20260507021008 11 270 6.4 8.0 0.00 0.28 0.00 96 1007.3
20260507020014 11 0 6.4 9.7 0.00 0.28 0.00 96 1007.1
20260507015007 11 270 6.4 8.0 0.00 0.28 0.00 95 1006.9
20260507014008 11 0 4.8 6.4 0.00 0.28 0.00 95 1006.8
20260507013007 11 0 3.2 6.4 0.00 0.28 0.00 94 1006.6
20260507012012 12 0 1.6 3.2 0.00 0.28 0.00 93 1006.6
20260507011008 12 225 1.6 4.8 0.00 0.28 0.00 93 1006.4
20260507010013 12 225 0.0 3.2 0.00 0.28 0.00 92 1006.3
20260507004009 12 45 1.6 4.8 0.00 0.28 0.00 91 1005.8
20260507003009 12 90 0.0 3.2 0.00 0.28 0.00 91 1005.7
20260507002009 12 0 1.6 6.4 0.00 0.28 0.00 91 1005.7
20260507001009 12 0 3.2 6.4 0.00 0.28 0.00 90 1005.5
20260507000012 13 0 4.8 8.0 0.00 0.28 0.00 88 1005.8
20260506235008 13 0 4.8 9.7 0.00 0.28 0.00 88 1005.9
20260506234008 13 45 6.4 12.9 0.00 0.28 0.00 87 1005.4
20260506232008 13 0 4.8 9.7 0.00 0.28 0.00 88 1005.3
20260506230012 13 0 6.4 9.7 0.00 0.28 0.00 88 1005.6
20260506225009 13 270 6.4 11.3 0.00 0.28 0.00 87 1005.9
20260506223009 13 270 8.0 17.7 0.00 0.28 0.00 87 1005.8
20260506222008 13 0 12.9 17.7 0.00 0.28 0.00 85 1006.1
20260506221009 13 0 16.1 27.4 0.00 0.28 0.00 86 1005.8
20260506215006 13 90 4.8 11.3 0.00 0.28 0.28 86 1004.5
20260506214007 13 0 6.4 14.5 0.00 0.28 0.28 87 1004.5
20260506213010 12 180 4.8 9.7 0.00 0.28 0.28 90 1004.7
20260506212008 12 0 3.2 6.4 0.00 0.28 0.28 89 1004.7
20260506211008 12 270 9.7 16.1 0.00 0.28 0.28 89 1004.7
20260506210013 12 225 1.6 4.8 0.00 0.28 0.28 88 1004.3
20260506205008 12 135 1.6 4.8 0.00 0.28 0.28 89 1004.1
20260506203010 12 90 3.2 6.4 0.00 0.28 0.28 85 1003.8
20260506202008 13 0 4.8 8.0 0.00 0.28 0.28 85 1003.5
20260506201009 12 45 6.4 9.7 0.00 0.28 0.28 86 1003.8
20260506195008 13 45 4.8 9.7 0.00 0.28 0.28 88 1003.7
20260506194009 13 90 6.4 9.7 0.00 0.28 0.28 87 1003.7
20260506193008 13 45 6.4 12.9 0.00 0.28 0.28 87 1003.8
20260506192006 13 90 4.8 9.7 0.00 0.28 0.28 87 1003.8
20260506191010 13 45 6.4 9.7 0.00 0.28 0.28 87 1003.7
20260506185007 13 0 6.4 12.9 0.00 0.28 0.28 87 1003.8
20260506184009 13 45 6.4 11.3 0.00 0.28 0.28 88 1003.8
20260506183011 13 0 6.4 12.9 0.00 0.28 0.28 87 1004.1
20260506182009 13 45 6.4 14.5 0.00 0.28 0.28 85 1004.0
20260506181006 13 0 8.0 22.5 0.00 0.28 0.28 84 1003.9
20260506175007 15 270 9.7 19.3 0.00 0.28 0.28 83 1003.9
20260506174009 15 0 17.7 35.4 0.00 0.28 0.28 83 1004.2
20260506173010 15 225 1.6 4.8 0.03 0.28 0.28 90 1003.4
20260506171009 15 45 1.6 6.4 0.15 0.28 0.28 90 1002.7